| time (UTC) | temp F | wind direction | speed knots | gust knots | rain 1hr in | rain 24hr in | rain mn in | humidity % | barometer mb |
| 20260502233537 | 63 | 293 | 1.7 | 6.1 | 0.00 | 0.00 | 0.00 | 41 | 1009.6 |
| 20260502232517 | 63 | 270 | 1.7 | 5.2 | 0.00 | 0.00 | 0.00 | 40 | 1009.7 |
| 20260502231537 | 63 | 225 | 1.7 | 6.1 | 0.00 | 0.00 | 0.00 | 39 | 1009.8 |
| 20260502230517 | 63 | 270 | 1.7 | 3.5 | 0.00 | 0.00 | 0.00 | 39 | 1009.9 |
| 20260502225517 | 63 | 203 | 2.6 | 6.1 | 0.00 | 0.00 | 0.00 | 38 | 1010.0 |
| 20260502224537 | 63 | 203 | 2.6 | 4.3 | 0.00 | 0.00 | 0.00 | 38 | 1009.9 |
| 20260502223617 | 63 | 225 | 1.7 | 4.3 | 0.00 | 0.00 | 0.00 | 37 | 1010.2 |
| 20260502222517 | 63 | 225 | 1.7 | 3.5 | 0.00 | 0.00 | 0.00 | 38 | 1010.2 |
| 20260502221517 | 64 | 270 | 2.6 | 7.0 | 0.00 | 0.00 | 0.00 | 38 | 1010.1 |
| 20260502220517 | 64 | 248 | 1.7 | 4.3 | 0.00 | 0.00 | 0.00 | 37 | 1010.2 |
| 20260502215517 | 64 | 203 | 1.7 | 4.3 | 0.00 | 0.00 | 0.00 | 37 | 1010.4 |
| 20260502214517 | 64 | 293 | 0.9 | 3.5 | 0.00 | 0.00 | 0.00 | 36 | 1010.6 |
| 20260502213537 | 64 | 225 | 2.6 | 6.1 | 0.00 | 0.00 | 0.00 | 35 | 1010.8 |
| 20260502212517 | 65 | 270 | 1.7 | 5.2 | 0.00 | 0.00 | 0.00 | 34 | 1011.0 |
| 20260502211517 | 66 | 225 | 2.6 | 6.1 | 0.00 | 0.00 | 0.00 | 33 | 1011.3 |
| 20260502210517 | 65 | 225 | 2.6 | 6.1 | 0.00 | 0.00 | 0.00 | 34 | 1011.3 |
| 20260502205537 | 65 | 270 | 3.5 | 8.7 | 0.00 | 0.00 | 0.00 | 34 | 1011.6 |
| 20260502204517 | 66 | 225 | 3.5 | 8.7 | 0.00 | 0.00 | 0.00 | 35 | 1011.9 |
| 20260502203517 | 65 | 225 | 3.5 | 7.8 | 0.00 | 0.00 | 0.00 | 33 | 1012.2 |
| 20260502202537 | 65 | 225 | 4.3 | 7.8 | 0.00 | 0.00 | 0.00 | 33 | 1012.4 |
| 20260502201557 | 64 | 225 | 3.5 | 7.0 | 0.00 | 0.00 | 0.00 | 35 | 1012.6 |
| 20260502200517 | 65 | 293 | 2.6 | 7.8 | 0.00 | 0.00 | 0.00 | 35 | 1012.7 |
| 20260502195517 | 64 | 225 | 4.3 | 8.7 | 0.00 | 0.00 | 0.00 | 34 | 1012.9 |
| 20260502194517 | 64 | 225 | 3.5 | 8.7 | 0.00 | 0.00 | 0.00 | 37 | 1013.2 |
| 20260502193517 | 63 | 225 | 4.3 | 9.6 | 0.00 | 0.00 | 0.00 | 34 | 1013.2 |
| 20260502192516 | 62 | 203 | 4.3 | 8.7 | 0.00 | 0.00 | 0.00 | 35 | 1013.4 |
| 20260502191517 | 62 | 203 | 5.2 | 8.7 | 0.00 | 0.00 | 0.00 | 35 | 1013.7 |
| 20260502190517 | 62 | 225 | 3.5 | 6.1 | 0.00 | 0.00 | 0.00 | 36 | 1013.9 |
| 20260502185517 | 62 | 225 | 2.6 | 9.6 | 0.00 | 0.00 | 0.00 | 35 | 1014.2 |
| 20260502184517 | 62 | 225 | 3.5 | 7.8 | 0.00 | 0.00 | 0.00 | 34 | 1014.2 |
| 20260502183517 | 62 | 225 | 3.5 | 7.0 | 0.00 | 0.00 | 0.00 | 35 | 1014.3 |
| 20260502182537 | 62 | 225 | 4.3 | 10.4 | 0.00 | 0.00 | 0.00 | 34 | 1014.6 |
| 20260502181516 | 61 | 293 | 2.6 | 7.0 | 0.00 | 0.00 | 0.00 | 36 | 1014.7 |
| 20260502180517 | 62 | 270 | 2.6 | 6.1 | 0.00 | 0.00 | 0.00 | 40 | 1014.7 |
| 20260502170516 | 59 | 203 | 3.5 | 7.0 | 0.00 | 0.00 | 0.00 | 41 | 1015.7 |
| 20260502163516 | 58 | 225 | 2.6 | 7.0 | 0.00 | 0.00 | 0.00 | 39 | 1016.2 |
| 20260502162517 | 58 | 225 | 2.6 | 7.8 | 0.00 | 0.00 | 0.00 | 38 | 1016.3 |
| 20260502161536 | 58 | 225 | 2.6 | 7.8 | 0.00 | 0.00 | 0.00 | 36 | 1016.5 |
| 20260502160516 | 58 | 248 | 1.7 | 4.3 | 0.00 | 0.00 | 0.00 | 40 | 1016.6 |
| 20260502151516 | 54 | 270 | 1.7 | 6.1 | 0.00 | 0.00 | 0.00 | 45 | 1017.0 |
| 20260502150537 | 54 | 293 | 2.6 | 7.8 | 0.00 | 0.00 | 0.00 | 43 | 1017.1 |
| 20260502130516 | 42 | 293 | 1.7 | 3.5 | 0.00 | 0.00 | 0.00 | 72 | 1017.5 |
| 20260502123516 | 37 | 315 | 0.9 | 2.6 | 0.00 | 0.00 | 0.00 | 83 | 1017.2 |
| 20260502122557 | 36 | 0.0 | 1.7 | 0.00 | 0.00 | 0.00 | 85 | 1017.3 | |
| 20260502121516 | 35 | 0.0 | 2.6 | 0.00 | 0.00 | 0.00 | 86 | 1017.2 | |
| 20260502120516 | 34 | 0.0 | 2.6 | 0.00 | 0.00 | 0.00 | 87 | 1017.2 | |
| 20260502115516 | 33 | 0.0 | 0.9 | 0.00 | 0.00 | 0.00 | 86 | 1017.1 | |
| 20260502114516 | 33 | 0.0 | 0.0 | 0.00 | 0.00 | 0.00 | 85 | 1017.1 | |
| 20260502113536 | 33 | 0.0 | 0.0 | 0.00 | 0.00 | 0.00 | 84 | 1017.0 | |
| 20260502112516 | 33 | 0.0 | 0.0 | 0.00 | 0.00 | 0.00 | 84 | 1017.0 | |
| 20260502111516 | 33 | 0.0 | 0.0 | 0.00 | 0.00 | 0.00 | 84 | 1016.9 | |
| 20260502110516 | 33 | 0.0 | 0.0 | 0.00 | 0.00 | 0.00 | 85 | 1016.9 | |
| 20260502105516 | 33 | 0.0 | 0.0 | 0.00 | 0.00 | 0.00 | 85 | 1016.9 | |
| 20260502104516 | 33 | 0.0 | 0.0 | 0.00 | 0.00 | 0.00 | 85 | 1016.9 | |
| 20260502103516 | 33 | 0.0 | 0.0 | 0.00 | 0.00 | 0.00 | 85 | 1017.0 | |
| 20260502102516 | 33 | 0.0 | 0.0 | 0.00 | 0.00 | 0.00 | 85 | 1017.0 | |
| 20260502101516 | 33 | 0.0 | 0.0 | 0.00 | 0.00 | 0.00 | 85 | 1017.0 | |
| 20260502100516 | 33 | 0.0 | 0.0 | 0.00 | 0.00 | 0.00 | 85 | 1017.0 | |
| 20260502090516 | 33 | 0.0 | 0.0 | 0.00 | 0.00 | 0.00 | 76 | 1016.7 | |
| 20260502071516 | 38 | 0.0 | 0.0 | 0.00 | 0.00 | 0.00 | 69 | 1017.1 | |
| 20260502070516 | 38 | 0.0 | 0.0 | 0.00 | 0.00 | 0.00 | 69 | 1017.1 | |
| 20260502065516 | 38 | 0.0 | 0.0 | 0.00 | 0.00 | 0.00 | 68 | 1017.2 | |
| 20260502064516 | 38 | 0.0 | 0.0 | 0.00 | 0.00 | 0.00 | 67 | 1017.3 | |
| 20260502063516 | 39 | 0.0 | 0.0 | 0.00 | 0.00 | 0.00 | 67 | 1017.3 | |
| 20260502062516 | 39 | 0.0 | 0.0 | 0.00 | 0.00 | 0.00 | 66 | 1017.3 | |
| 20260502061516 | 39 | 0.0 | 0.0 | 0.00 | 0.00 | 0.00 | 67 | 1017.2 | |
| 20260502060515 | 39 | 0.0 | 0.0 | 0.00 | 0.00 | 0.00 | 67 | 1017.2 | |
| 20260502055516 | 39 | 0.0 | 0.0 | 0.00 | 0.00 | 0.00 | 67 | 1017.3 | |
| 20260502054516 | 39 | 0.0 | 1.7 | 0.00 | 0.00 | 0.00 | 68 | 1017.3 | |
| 20260502053516 | 39 | 0.0 | 0.0 | 0.00 | 0.00 | 0.00 | 68 | 1017.3 | |
| 20260502052536 | 39 | 0.0 | 0.0 | 0.00 | 0.00 | 0.00 | 69 | 1017.3 | |
| 20260502051516 | 39 | 0.0 | 0.0 | 0.00 | 0.00 | 0.00 | 70 | 1017.3 | |
| 20260502050516 | 39 | 0.0 | 0.0 | 0.00 | 0.00 | 0.00 | 70 | 1017.3 | |
| 20260502045515 | 39 | 0.0 | 0.0 | 0.00 | 0.00 | 0.00 | 72 | 1017.3 | |
| 20260502044515 | 39 | 0.0 | 0.0 | 0.00 | 0.00 | 0.00 | 72 | 1017.3 | |
| 20260502043535 | 40 | 0.0 | 0.9 | 0.00 | 0.00 | 0.00 | 72 | 1017.3 | |
| 20260502042515 | 40 | 0.0 | 0.9 | 0.00 | 0.00 | 0.00 | 71 | 1017.3 | |
| 20260502041515 | 41 | 0.0 | 0.0 | 0.00 | 0.00 | 0.00 | 69 | 1017.3 | |
| 20260502040515 | 41 | 0.0 | 0.0 | 0.00 | 0.00 | 0.00 | 69 | 1017.3 | |
| 20260502035515 | 42 | 0.0 | 0.0 | 0.00 | 0.00 | 0.00 | 68 | 1017.3 | |
| 20260502034515 | 42 | 0.0 | 0.0 | 0.00 | 0.00 | 0.00 | 67 | 1017.3 | |
| 20260502033515 | 43 | 0.0 | 0.0 | 0.00 | 0.00 | 0.00 | 65 | 1017.3 | |
| 20260502032515 | 43 | 0.0 | 0.0 | 0.00 | 0.00 | 0.00 | 64 | 1017.4 | |
| 20260502031515 | 43 | 0.0 | 0.0 | 0.00 | 0.00 | 0.00 | 62 | 1017.3 | |
| 20260502030515 | 43 | 0.0 | 0.0 | 0.00 | 0.00 | 0.00 | 60 | 1017.3 | |
| 20260502025515 | 43 | 0.0 | 0.0 | 0.00 | 0.00 | 0.00 | 58 | 1017.3 | |
| 20260502024555 | 44 | 0.0 | 0.0 | 0.00 | 0.00 | 0.00 | 54 | 1017.3 | |
| 20260502023555 | 44 | 0.0 | 0.0 | 0.00 | 0.00 | 0.00 | 53 | 1017.3 | |
| 20260502022535 | 45 | 0.0 | 0.0 | 0.00 | 0.00 | 0.00 | 49 | 1017.3 | |
| 20260502021515 | 45 | 0.0 | 0.0 | 0.00 | 0.00 | 0.00 | 47 | 1017.1 | |
| 20260502020515 | 46 | 0.0 | 0.0 | 0.00 | 0.00 | 0.00 | 46 | 1017.1 | |
| 20260502015515 | 47 | 0.0 | 0.0 | 0.00 | 0.00 | 0.00 | 46 | 1017.0 | |
| 20260502014515 | 48 | 0.0 | 0.0 | 0.00 | 0.00 | 0.00 | 43 | 1016.9 | |
| 20260502013515 | 48 | 0.0 | 0.0 | 0.00 | 0.00 | 0.00 | 44 | 1016.9 | |
| 20260502012515 | 49 | 0.0 | 0.0 | 0.00 | 0.00 | 0.00 | 42 | 1016.8 | |
| 20260502011517 | 50 | 0.0 | 0.0 | 0.00 | 0.00 | 0.00 | 40 | 1016.8 | |
| 20260502010537 | 51 | 0.0 | 0.0 | 0.00 | 0.00 | 0.00 | 40 | 1016.7 | |
| 20260502005517 | 51 | 0.0 | 0.0 | 0.00 | 0.00 | 0.00 | 38 | 1016.8 | |
| 20260502004517 | 52 | 0.0 | 0.9 | 0.00 | 0.00 | 0.00 | 38 | 1016.8 | |
| 20260502003517 | 52 | 0.0 | 0.0 | 0.00 | 0.00 | 0.00 | 39 | 1016.7 | |
| 20260502002517 | 52 | 0.0 | 1.7 | 0.00 | 0.00 | 0.00 | 38 | 1016.8 | |
| 20260502001517 | 52 | 0.0 | 1.7 | 0.00 | 0.00 | 0.00 | 38 | 1016.7 | |
| 20260502000517 | 52 | 338 | 0.9 | 4.3 | 0.00 | 0.00 | 0.00 | 38 | 1016.7 |
| 20260501235517 | 53 | 270 | 0.9 | 3.5 | 0.00 | 0.00 | 0.00 | 37 | 1016.8 |
| 20260501234537 | 53 | 315 | 1.7 | 5.2 | 0.00 | 0.00 | 0.00 | 35 | 1016.8 |